Погода в Неволином

Россия / Пермский край     57˚22′57″N   56˚54′54″E
темп.,
°C
ветер,
м/с
пор.,
м/с
влажн.,
%
обл.,
%
осадки,
мм/ч
давл.,
гПа
погр.,
м
16 января, сб
сб1623:00−11˚юв1197100 0.1 101421
02:00−12˚всв2397100 0.1 101222
05:00−12˚всв5895100 0.1 1010162
08:00−11˚в41095100 0.6 1006337
11:00−9˚вюв61189100 1.8 1004567
14:00−9˚вюв5890100 0.0 1002443
17:00−8˚юв4795100 1.1 1000303
20:00−6˚ююв51296100 0.9 999553
17 января, вс
вс1723:00−11˚ююз7148896 1.1 1001670
02:00−13˚ю4119398 0.0 1000351
05:00−13˚ю489596 0.1 999154
08:00−11˚ююз259699 0.4 997146
11:00−13˚юз499499 0.6 998476
14:00−13˚юз5891100 0.2 1001666
17:00−14˚юз4894100 0.3 1004216
20:00−16˚юз489597 0.1 1007220
18 января, пн
пн1823:00−17˚зюз469698 0.1 1010143
02:00−21˚з239896 0.1 101328
05:00−24˚зюз229992 0.1 101522
08:00−25˚зюз229993 0.0 101720
11:00−25˚юз239784 0.0 101851
14:00−22˚юз359432 0.0 1018228
17:00−23˚юз339648 0.0 101837
20:00−25˚зюз339622 0.0 101925
19 января, вт
вт1923:00−27˚зюз129611 0.0 101919
02:00−27˚зюз119821 0.0 102019
05:00−27˚ссв129957 0.0 102019
08:00−27˚св229898 0.0 102019
11:00−25˚ссв369599 0.0 1020142
14:00−22˚ссв3690100 0.0 1019212
17:00−22˚ссв3691100 0.0 101999
20:00−21˚св4791100 0.0 1018120
20 января, ср
ср2023:00−22˚всв4790100 0.0 1019123
02:00−22˚всв4690100 0.0 1020109
05:00−24˚всв3690100 0.0 102197
08:00−25˚всв3488100 0.0 102258
11:00−26˚в238696 0.0 102331
14:00−23˚всв228555 0.0 102499
17:00−26˚в128434 0.0 102520
20:00−28˚юв11880 0.0 102619